Regional Weather Roundup
Issued by NWS

Home | Current Version | Previous Version | Graphics & Text | Print | Product List | Glossary On
Versions: 1 2 3 4 5 6 7 8 9 10 11 12 13 14 15 16 17 18 19 20 21 22 23 24 25 26 27
000
ASUS45 KTFX 280810
RWRMT
MONTANA REGIONAL WEATHER ROUNDUP
NATIONAL WEATHER SERVICE GREAT FALLS MT
200 AM MDT SAT MAY 28 2016

NOTE: "FAIR" INDICATES FEW OR NO CLOUDS BELOW 12000 FEET WITH NO
SIGNIFICANT WEATHER AND/OR OBSTRUCTIONS TO VISIBILITY.

MTZ001>007-043-280900-
WEST OF THE DIVIDE

CITY           SKY/WX    TMP DP  RH WIND       PRES   REMARKS
KALISPELL      CLOUDY    41  39  93 CALM      29.99S
MISSOULA       MOCLDY    41  35  79 CALM      30.03S
BUTTE          CLOUDY    38  35  89 CALM      30.02S
MULLAN PASS    MOCLDY    33  26  75 NW3       30.02S
ANACONDA         N/A     37  32  81 S5        30.02R
DEER LODGE       N/A     43  36  75 NW6       30.02F
EUREKA           N/A     46  37  71 S7        30.00S
HAMILTON         N/A     41  34  75 CALM      30.02S
LIBBY            N/A     39  36  87 CALM      30.01F
$$

MTZ008-052>055-280900-
SOUTHWEST MONTANA

CITY           SKY/WX    TMP DP  RH WIND       PRES   REMARKS
BOZEMAN        CLOUDY    45  43  93 CALM      29.99S
DILLON         CLOUDY    43  40  89 SE5       30.00S
W YELLOWSTONE  LGT RAIN  39  39 100 CALM      30.02R
ENNIS          CLOUDY    43  41  93 S5        30.06S
$$

MTZ009-010-012-014-046-048-049-054-280900-
EAST SLOPES AND CENTRAL MONTANA

CITY           SKY/WX    TMP DP  RH WIND       PRES   REMARKS
CUT BANK       CLEAR     41  32  70 W14       29.91F
GREAT FALLS    LGT RAIN  47  40  76 W7        29.95R
MALMSTROM AFB  MOCLDY    51  42  70 W14       29.94R
HELENA         MOCLDY    49  32  52 W10       29.98R
CHOTEAU          N/A     43  32  65 CALM      29.94F
$$

MTZ011-013-016-021-045-047-050-051-280900-
NORTH CENTRAL MONTANA

CITY           SKY/WX    TMP DP  RH WIND       PRES   REMARKS
HAVRE          CLOUDY    52  49  89 SW8       29.87S
LEWISTOWN      CLOUDY    49  46  90 W6        29.94R
N BAR RANCH    CLOUDY    46  43  87 NW13G18   29.93S
CHINOOK          N/A     54  52  94 W6        29.87S
$$

MTZ017>020-022>027-061-062-280900-
NORTHEAST MONTANA

CITY           SKY/WX    TMP DP  RH WIND       PRES   REMARKS
GLASGOW        MOCLDY    54  49  83 E10       29.83S
JORDAN           N/A     52  49  89 W6        29.84S
SIDNEY         MOCLDY    54  52  94 NE8       29.86S
WOLF POINT     CLEAR     50  48  93 E6        29.85F
PLENTYWOOD       N/A     54  54 100 E7        29.89R
POPLAR           N/A     52  50  93 NE7       29.86S
$$

MTZ028>42-056>058-280900-
SOUTHCENTRAL AND SOUTHEAST MONTANA

CITY           SKY/WX    TMP DP  RH WIND       PRES   REMARKS
BAKER          CLOUDY    46  42  86 VRB5      29.86S
BILLINGS       CLOUDY    51  47  86 W6        29.92S
LIVINGSTON     CLOUDY    46  43  89 W9        29.96S
MILES CITY     PTCLDY    51  47  86 W6        29.84R
FORSYTH          N/A     54  52  94 SW5       29.85R
$$

REGIONAL REPORTS...DAKOTAS

CITY           SKY/WX    TMP DP  RH WIND       PRES   REMARKS
WILLISTON      CLOUDY    57  53  86 E9        29.88R
MINOT          CLOUDY    56  54  93 NE7       29.88S FOG
DICKINSON      MOCLDY    47  44  90 W3        29.84F
BEACH            N/A     48  48 100 SE5       29.88F
CROSBY         CLOUDY    52  52 100 E12       29.93R
WATFORD CITY   CLOUDY    55  55 100 E12       29.87S
BISMARCK       MOCLDY    55  51  86 NE3       29.84S
GRAND FORKS    CLOUDY    63  58  83 SE5       29.81S
FARGO          PTCLDY    58  56  93 CALM      29.80R
BUFFALO SD       N/A     51  44  77 S3        29.80S
RAPID CITY     CLEAR     44  42  93 NW7       29.86S
$$

REGIONAL REPORTS...WYOMING/IDAHO/WASHINGTON

CITY           SKY/WX    TMP DP  RH WIND       PRES   REMARKS
GILLETTE       PTCLDY    43  41  93 W5        29.90S
SHERIDAN       CLOUDY    49  46  90 SW5       29.90R
BUFFALO WY     CLOUDY    49  45  86 CALM      29.93F
CODY           CLOUDY    45  43  93 E7        29.95R
YELLOWSTONE LA   N/A     32  31  96 CALM      30.06S
IDAHO FALLS    CLEAR     44  35  70 SW8       29.99R
SALMON         CLOUDY    48  36  61 CALM      30.00R
BOISE          CLEAR     51  31  46 W7        30.01R
SPOKANE        PTCLDY    46  32  58 S6        29.99R
$$

REGIONAL REPORTS...ALBERTA

CITY           SKY/WX    TMP DP  RH WIND       PRES   REMARKS
EDMONTON       CLOUDY    50  45  81 SW7       29.81S
CALGARY        PTCLDY    43  39  87 W2        29.87S
LETHBRIDGE     CLEAR     41  34  75 SW12      29.88S
MEDICINE HAT   MOCLDY    52  39  62 S8        29.85S
WATERTON GATE    N/A     45  28  53 SW16G25     N/A
MILK RIVER       N/A     37  34  87 NW9         N/A  WCI  31
ONEFOUR          N/A     50  41  71 NW13        N/A
$$

REGIONAL REPORTS...SASKATCHEWAN

CITY           SKY/WX    TMP DP  RH WIND       PRES   REMARKS
SWIFT CURRENT  CLOUDY    55  50  82 E3        29.86F
REGINA         MOCLDY    52  48  87 E15       29.92S
SASKATOON      PTCLDY    55  50  82 SE14      29.90S
VAL MARIE        N/A     54  50  87 N2          N/A
ROCKGLEN         N/A     52  50  93 E9          N/A
$$




USA.gov is the U.S. government's official web portal to all federal, state and local government web resources and services.